Flag for Canada Weather past 2 weeks in Abbotsford, British Columbia, Canada

Now
43 °F

Partly sunny.


Feels Like: 39 °F
Forecast: 40 / 54 °F
Wind: 6 mph from Northeast

Location: Abbotsford

Current Time: Apr 25, 2015 at 9:03:30 AM

Latest Report: Apr 25, 2015 at 8:00 AM


Visibility: 25 mi

Pressure: 29.95 "Hg

Humidity: 93%

Dew point: 41 °F

Location of AbbotsfordLocation

Historic Weather in Abbotsford — Graph

°F

Abbotsford temperature yesterday

Maximum temperature yesterday: 50 °F (at 11:00 AM)
Minimum temperature yesterday: 39 °F (at 12:00 AM)
Average temperature yesterday: 44 °F

Past Weeks' High & Low Weather Summary

 TemperatureHumidityPressure
High72 °F (Apr 20, 3:00 PM)100% (Apr 15, 4:00 AM)30.55 "Hg (Apr 15, 4:00 AM)
Low36 °F (Apr 15, 4:00 AM)38% (Apr 10, 4:03 PM)29.71 "Hg (Apr 10, 10:00 PM)
Average49 °F75%30.08 "Hg
* Reported Apr 10 8:00 AM — Apr 25 8:00 AM, Abbotsford, Weather by CustomWeather, © 2015

Note: Actual official high and low records may vary slightly from our data, if they occured in-between our weather recording intervals... More about our weather records

Advertising

Abbotsford weather history for previous 24 hours

 ConditionsComfort  
Time TempWeatherWind HumidityBarometerVisibility
8:00 AM
Sat, Apr 25
43 °FPartly sunny.6 mph93%29.95 "Hg25 mi
7:00 AM43 °FMostly cloudy.5 mph93%29.94 "Hg25 mi
6:00 AM41 °FLow clouds.3 mph100%29.93 "Hg25 mi
5:00 AM41 °FPartly cloudy.2 mph100%29.92 "Hg10 mi
4:00 AM41 °FPartly cloudy.2 mph100%29.91 "Hg10 mi
3:00 AM41 °FMostly cloudy.3 mph100%29.90 "Hg10 mi
2:00 AM41 °FPassing clouds.5 mph100%29.89 "Hg10 mi
1:00 AM41 °FPartly cloudy.5 mph100%29.89 "Hg10 mi
12:00 AM41 °FPartly cloudy.2 mph93%29.88 "Hg10 mi
11:00 PM
Fri, Apr 24
41 °FPassing clouds.7 mph93%29.88 "Hg10 mi
10:00 PM43 °FLight rain. Partly cloudy.8 mph93%29.88 "Hg10 mi
9:00 PM43 °FBroken clouds.7 mph87%29.86 "Hg10 mi
8:00 PM43 °FBroken clouds.14 mph81%29.85 "Hg15 mi
7:00 PM45 °FPartly sunny.8 mph81%29.85 "Hg20 mi
6:00 PM45 °FBroken clouds.10 mph87%29.84 "Hg20 mi
4:00 PM45 °FThunderstorms. Mostly cloudy.12 mph87%29.82 "Hg10 mi
3:00 PM48 °FScattered showers. Overcast.8 mph82%29.80 "Hg25 mi
2:00 PM50 °FPartly sunny.9 mph82%29.79 "Hg25 mi
1:00 PM46 °FSprinkles. Partly sunny.7 mph82%29.79 "Hg20 mi
12:52 PM45 °FSprinkles. Partly sunny.6 mph87%29.79 "Hg15 mi
12:00 PM50 °FSprinkles. Partly sunny.20 mph67%29.79 "Hg15 mi
11:00 AM50 °FSprinkles. Partly sunny.10 mph71%29.78 "Hg20 mi
10:00 AM48 °FSprinkles. Partly sunny.12 mph76%29.78 "Hg20 mi
9:00 AM46 °FPartly sunny.9 mph82%29.77 "Hg20 mi
Weather by CustomWeather, © 2015

See weather overviewHow to use our weather pages